Time,TemperatureF,DewpointF,PressureIn,WindDirection,WindDirectionDegrees,WindSpeedMPH,WindSpeedGustMPH,Humidity,HourlyPrecipIn,Conditions,Clouds,dailyrainin,SoftwareType,DateUTC
2013-07-30 00:00:00,59.7,53.5,29.97,NW,323,2.0,2.0,80,0.00,,,0.00,Wunderground v.1.15,2013-07-30 07:00:00,
2013-07-30 00:05:00,59.6,53.8,29.97,NE,40,1.0,2.0,81,0.00,,,0.00,Wunderground v.1.15,2013-07-30 07:05:00,
2013-07-30 00:10:00,59.5,53.7,29.97,NE,40,1.0,1.0,81,0.00,,,0.00,Wunderground v.1.15,2013-07-30 07:10:00,
2013-07-30 00:15:00,59.3,53.5,29.97,WNW,284,1.0,1.0,81,0.00,,,0.00,Wunderground v.1.15,2013-07-30 07:15:00,
2013-07-30 00:25:00,59.0,53.2,29.98,North,355,1.0,3.0,81,0.00,,,0.00,Wunderground v.1.15,2013-07-30 07:25:00,
2013-07-30 00:35:00,59.0,53.2,29.98,North,355,1.0,1.0,81,0.00,,,0.00,Wunderground v.1.15,2013-07-30 07:35:00,
2013-07-30 00:40:00,58.9,53.1,29.98,North,350,1.0,1.0,81,0.00,,,0.00,Wunderground v.1.15,2013-07-30 07:40:00,
2013-07-30 00:45:00,58.6,53.1,29.98,NW,315,1.0,2.0,82,0.00,,,0.00,Wunderground v.1.15,2013-07-30 07:45:00,
2013-07-30 00:50:00,58.5,53.0,29.98,NW,315,1.0,3.0,82,0.00,,,0.00,Wunderground v.1.15,2013-07-30 07:50:00,
2013-07-30 00:55:00,58.3,52.8,29.98,WNW,285,1.0,6.0,82,0.00,,,0.00,Wunderground v.1.15,2013-07-30 07:55:00,
2013-07-30 01:05:00,58.1,52.6,29.99,North,360,1.0,2.0,82,0.00,,,0.00,Wunderground v.1.15,2013-07-30 08:05:00,
2013-07-30 01:10:00,57.9,52.4,29.99,NNW,342,1.0,4.0,82,0.00,,,0.00,Wunderground v.1.15,2013-07-30 08:10:00,
2013-07-30 01:15:00,57.8,52.3,29.99,NNE,20,2.0,4.0,82,0.00,,,0.00,Wunderground v.1.15,2013-07-30 08:15:00,
2013-07-30 01:20:00,57.7,52.2,30.00,NNW,331,3.0,3.0,82,0.00,,,0.00,Wunderground v.1.15,2013-07-30 08:20:00,
2013-07-30 01:25:00,57.5,52.4,29.99,West,271,3.0,3.0,83,0.00,,,0.00,Wunderground v.1.15,2013-07-30 08:25:00,
2013-07-30 01:30:00,57.4,52.3,30.00,WNW,297,3.0,3.0,83,0.00,,,0.00,Wunderground v.1.15,2013-07-30 08:30:00,
2013-07-30 01:35:00,57.3,52.2,30.00,NW,304,2.0,3.0,83,0.00,,,0.00,Wunderground v.1.15,2013-07-30 08:35:00,
2013-07-30 01:45:00,57.1,52.0,30.00,West,279,2.0,2.0,83,0.00,,,0.00,Wunderground v.1.15,2013-07-30 08:45:00,
2013-07-30 01:50:00,57.0,51.9,30.00,West,275,1.0,1.0,83,0.00,,,0.00,Wunderground v.1.15,2013-07-30 08:50:00,
2013-07-30 01:55:00,56.8,51.7,30.00,WNW,294,1.0,1.0,83,0.00,,,0.00,Wunderground v.1.15,2013-07-30 08:55:00,
2013-07-30 02:00:00,56.8,52.0,30.00,WNW,302,1.0,1.0,84,0.00,,,0.00,Wunderground v.1.15,2013-07-30 09:00:00,
2013-07-30 02:05:00,56.6,51.8,30.00,NNW,338,1.0,1.0,84,0.00,,,0.00,Wunderground v.1.15,2013-07-30 09:05:00,
2013-07-30 02:15:00,56.4,51.6,30.00,East,86,1.0,4.0,84,0.00,,,0.00,Wunderground v.1.15,2013-07-30 09:15:00,
2013-07-30 02:20:00,56.4,51.6,30.01,ESE,110,1.0,1.0,84,0.00,,,0.00,Wunderground v.1.15,2013-07-30 09:20:00,
2013-07-30 02:25:00,56.3,51.5,30.01,WNW,285,2.0,2.0,84,0.00,,,0.00,Wunderground v.1.15,2013-07-30 09:25:00,
2013-07-30 02:30:00,56.3,51.5,30.01,WNW,299,2.0,2.0,84,0.00,,,0.00,Wunderground v.1.15,2013-07-30 09:30:00,
2013-07-30 02:35:00,56.2,51.4,30.01,WNW,291,2.0,3.0,84,0.00,,,0.00,Wunderground v.1.15,2013-07-30 09:35:00,
2013-07-30 02:45:00,56.0,51.2,30.01,NNW,331,1.0,2.0,84,0.00,,,0.00,Wunderground v.1.15,2013-07-30 09:45:00,
2013-07-30 02:50:00,56.0,51.2,30.01,NW,306,1.0,1.0,84,0.00,,,0.00,Wunderground v.1.15,2013-07-30 09:50:00,
2013-07-30 02:55:00,55.9,51.1,30.01,WNW,302,1.0,1.0,84,0.00,,,0.00,Wunderground v.1.15,2013-07-30 09:55:00,
2013-07-30 03:05:00,55.9,51.5,30.01,West,275,1.0,1.0,85,0.00,,,0.00,Wunderground v.1.15,2013-07-30 10:05:00,
2013-07-30 03:10:00,55.9,51.5,30.01,NNE,22,1.0,2.0,85,0.00,,,0.00,Wunderground v.1.15,2013-07-30 10:10:00,
2013-07-30 03:15:00,55.8,51.4,30.01,NNW,336,1.0,2.0,85,0.00,,,0.00,Wunderground v.1.15,2013-07-30 10:15:00,
2013-07-30 03:25:00,55.8,51.4,30.02,WNW,300,2.0,4.0,85,0.00,,,0.00,Wunderground v.1.15,2013-07-30 10:25:00,
2013-07-30 03:30:00,55.7,51.3,30.01,NW,309,2.0,2.0,85,0.00,,,0.00,Wunderground v.1.15,2013-07-30 10:30:00,
2013-07-30 03:35:00,55.7,51.3,30.02,NNE,21,2.0,2.0,85,0.00,,,0.00,Wunderground v.1.15,2013-07-30 10:35:00,
2013-07-30 03:45:00,55.6,51.2,30.02,NNW,330,2.0,2.0,85,0.00,,,0.00,Wunderground v.1.15,2013-07-30 10:45:00,
2013-07-30 03:55:00,55.5,51.1,30.02,WNW,300,2.0,5.0,85,0.00,,,0.00,Wunderground v.1.15,2013-07-30 10:55:00,
2013-07-30 04:00:00,55.5,51.1,30.02,WNW,300,2.0,2.0,85,0.00,,,0.00,Wunderground v.1.15,2013-07-30 11:00:00,
2013-07-30 04:05:00,55.4,51.0,30.02,NW,304,1.0,2.0,85,0.00,,,0.00,Wunderground v.1.15,2013-07-30 11:05:00,
2013-07-30 04:10:00,55.4,51.3,30.02,WNW,291,1.0,2.0,86,0.00,,,0.00,Wunderground v.1.15,2013-07-30 11:10:00,
2013-07-30 04:15:00,55.3,51.2,30.02,WNW,292,1.0,3.0,86,0.00,,,0.00,Wunderground v.1.15,2013-07-30 11:15:00,
2013-07-30 04:20:00,55.3,51.2,30.03,NW,309,1.0,1.0,86,0.00,,,0.00,Wunderground v.1.15,2013-07-30 11:20:00,
2013-07-30 04:25:00,55.3,51.2,30.03,NW,306,2.0,2.0,86,0.00,,,0.00,Wunderground v.1.15,2013-07-30 11:25:00,
2013-07-30 04:35:00,55.1,51.0,30.03,WNW,283,1.0,2.0,86,0.00,,,0.00,Wunderground v.1.15,2013-07-30 11:35:00,
2013-07-30 04:40:00,55.1,51.0,30.03,WNW,292,1.0,1.0,86,0.00,,,0.00,Wunderground v.1.15,2013-07-30 11:40:00,
2013-07-30 04:45:00,55.1,51.0,30.03,WNW,292,1.0,1.0,86,0.00,,,0.00,Wunderground v.1.15,2013-07-30 11:45:00,
2013-07-30 04:50:00,55.0,50.9,30.03,WNW,294,1.0,1.0,86,0.00,,,0.00,Wunderground v.1.15,2013-07-30 11:50:00,
2013-07-30 05:00:00,54.9,50.8,30.04,WNW,296,1.0,1.0,86,0.00,,,0.00,Wunderground v.1.15,2013-07-30 12:00:00,
2013-07-30 05:10:00,54.8,51.0,30.04,NNW,348,0.0,0.0,87,0.00,,,0.00,Wunderground v.1.15,2013-07-30 12:10:00,
2013-07-30 05:20:00,54.8,51.0,30.04,NW,304,1.0,4.0,87,0.00,,,0.00,Wunderground v.1.15,2013-07-30 12:20:00,
2013-07-30 05:25:00,54.8,51.0,30.04,WNW,299,2.0,4.0,87,0.00,,,0.00,Wunderground v.1.15,2013-07-30 12:25:00,
2013-07-30 05:30:00,54.9,51.1,30.04,WNW,299,1.0,3.0,87,0.00,,,0.00,Wunderground v.1.15,2013-07-30 12:30:00,
2013-07-30 05:40:00,55.1,51.3,30.05,NW,312,2.0,2.0,87,0.00,,,0.00,Wunderground v.1.15,2013-07-30 12:40:00,
2013-07-30 05:45:00,55.2,51.4,30.05,NW,311,2.0,2.0,87,0.00,,,0.00,Wunderground v.1.15,2013-07-30 12:45:00,
2013-07-30 05:50:00,55.4,51.6,30.05,NW,313,2.0,2.0,87,0.00,,,0.00,Wunderground v.1.15,2013-07-30 12:50:00,
2013-07-30 05:55:00,55.5,51.7,30.05,NW,323,3.0,3.0,87,0.00,,,0.00,Wunderground v.1.15,2013-07-30 12:55:00,
2013-07-30 06:00:00,55.7,51.9,30.05,NW,319,3.0,3.0,87,0.00,,,0.00,Wunderground v.1.15,2013-07-30 13:00:00,
2013-07-30 06:05:00,55.7,51.6,30.05,WNW,294,3.0,3.0,86,0.00,,,0.00,Wunderground v.1.15,2013-07-30 13:05:00,
2013-07-30 06:15:00,55.9,51.8,30.06,WSW,250,2.0,5.0,86,0.00,,,0.00,Wunderground v.1.15,2013-07-30 13:15:00,
2013-07-30 06:20:00,55.9,51.8,30.06,WNW,300,2.0,2.0,86,0.00,,,0.00,Wunderground v.1.15,2013-07-30 13:20:00,
2013-07-30 06:25:00,55.9,51.8,30.06,WNW,298,3.0,3.0,86,0.00,,,0.00,Wunderground v.1.15,2013-07-30 13:25:00,
2013-07-30 06:30:00,56.0,51.9,30.06,NW,316,3.0,3.0,86,0.00,,,0.00,Wunderground v.1.15,2013-07-30 13:30:00,
2013-07-30 06:35:00,56.0,51.9,30.06,West,276,3.0,3.0,86,0.00,,,0.00,Wunderground v.1.15,2013-07-30 13:35:00,
2013-07-30 06:45:00,56.0,51.9,30.07,WNW,298,3.0,3.0,86,0.00,,,0.00,Wunderground v.1.15,2013-07-30 13:45:00,
2013-07-30 06:50:00,56.1,52.0,30.07,WNW,296,2.0,4.0,86,0.00,,,0.00,Wunderground v.1.15,2013-07-30 13:50:00,
2013-07-30 06:55:00,56.1,52.0,30.07,WNW,296,2.0,4.0,86,0.00,,,0.00,Wunderground v.1.15,2013-07-30 13:55:00,
2013-07-30 07:00:00,56.2,51.7,30.07,NW,306,2.0,2.0,85,0.00,,,0.00,Wunderground v.1.15,2013-07-30 14:00:00,
2013-07-30 07:05:00,56.2,51.7,30.07,NW,309,2.0,4.0,85,0.00,,,0.00,Wunderground v.1.15,2013-07-30 14:05:00,
2013-07-30 07:15:00,56.3,51.8,30.08,NW,309,2.0,3.0,85,0.00,,,0.00,Wunderground v.1.15,2013-07-30 14:15:00,
2013-07-30 07:20:00,56.4,51.9,30.08,NW,319,3.0,3.0,85,0.00,,,0.00,Wunderground v.1.15,2013-07-30 14:20:00,
2013-07-30 07:25:00,56.4,52.3,30.08,NW,317,2.0,3.0,86,0.00,,,0.00,Wunderground v.1.15,2013-07-30 14:25:00,
2013-07-30 07:35:00,56.7,52.6,30.08,NW,305,2.0,3.0,86,0.00,,,0.00,Wunderground v.1.15,2013-07-30 14:35:00,
2013-07-30 07:40:00,56.8,52.7,30.08,NW,312,1.0,1.0,86,0.00,,,0.00,Wunderground v.1.15,2013-07-30 14:40:00,
2013-07-30 07:50:00,56.9,52.8,30.08,NW,312,1.0,1.0,86,0.00,,,0.00,Wunderground v.1.15,2013-07-30 14:50:00,
2013-07-30 07:55:00,57.1,53.0,30.08,NW,311,1.0,1.0,86,0.00,,,0.00,Wunderground v.1.15,2013-07-30 14:55:00,
2013-07-30 08:05:00,57.2,52.7,30.08,NW,312,2.0,2.0,85,0.00,,,0.00,Wunderground v.1.15,2013-07-30 15:05:00,
2013-07-30 08:10:00,57.3,53.1,30.08,NW,313,2.0,3.0,86,0.00,,,0.00,Wunderground v.1.15,2013-07-30 15:10:00,
2013-07-30 08:15:00,57.3,53.1,30.08,NW,313,1.0,3.0,86,0.00,,,0.00,Wunderground v.1.15,2013-07-30 15:15:00,
2013-07-30 08:20:00,57.5,53.3,30.08,NW,313,1.0,1.0,86,0.00,,,0.00,Wunderground v.1.15,2013-07-30 15:20:00,
2013-07-30 08:25:00,57.7,53.2,30.08,NW,313,1.0,2.0,85,0.00,,,0.00,Wunderground v.1.15,2013-07-30 15:25:00,
2013-07-30 08:35:00,57.8,53.3,30.08,NW,313,1.0,1.0,85,0.00,,,0.00,Wunderground v.1.15,2013-07-30 15:35:00,
2013-07-30 08:40:00,58.0,53.5,30.09,NW,313,1.0,1.0,85,0.00,,,0.00,Wunderground v.1.15,2013-07-30 15:40:00,
2013-07-30 08:45:00,58.1,53.6,30.09,WNW,296,1.0,1.0,85,0.00,,,0.00,Wunderground v.1.15,2013-07-30 15:45:00,
2013-07-30 08:50:00,58.3,53.8,30.09,NW,317,1.0,2.0,85,0.00,,,0.00,Wunderground v.1.15,2013-07-30 15:50:00,
2013-07-30 08:55:00,58.4,53.9,30.09,NW,312,1.0,2.0,85,0.00,,,0.00,Wunderground v.1.15,2013-07-30 15:55:00,
2013-07-30 09:00:00,58.6,54.1,30.08,NW,314,1.0,1.0,85,0.00,,,0.00,Wunderground v.1.15,2013-07-30 16:00:00,
2013-07-30 09:05:00,58.7,54.2,30.09,NW,322,1.0,1.0,85,0.00,,,0.00,Wunderground v.1.15,2013-07-30 16:05:00,
2013-07-30 09:15:00,59.1,53.9,30.08,WNW,299,1.0,3.0,83,0.00,,,0.00,Wunderground v.1.15,2013-07-30 16:15:00,
2013-07-30 09:20:00,59.1,53.9,30.09,WSW,242,3.0,3.0,83,0.00,,,0.00,Wunderground v.1.15,2013-07-30 16:20:00,
2013-07-30 09:25:00,59.4,54.2,30.09,WSW,250,2.0,3.0,83,0.00,,,0.00,Wunderground v.1.15,2013-07-30 16:25:00,
2013-07-30 09:30:00,59.8,54.6,30.09,NE,40,1.0,1.0,83,0.00,,,0.00,Wunderground v.1.15,2013-07-30 16:30:00,
2013-07-30 09:35:00,59.9,54.1,30.09,NNE,28,2.0,3.0,81,0.00,,,0.00,Wunderground v.1.15,2013-07-30 16:35:00,
2013-07-30 09:45:00,60.2,54.7,30.09,NNW,334,2.0,3.0,82,0.00,,,0.00,Wunderground v.1.15,2013-07-30 16:45:00,
2013-07-30 09:50:00,60.5,54.6,30.08,NNW,331,1.0,1.0,81,0.00,,,0.00,Wunderground v.1.15,2013-07-30 16:50:00,
2013-07-30 09:55:00,60.8,54.6,30.09,WNW,298,1.0,1.0,80,0.00,,,0.00,Wunderground v.1.15,2013-07-30 16:55:00,
2013-07-30 10:05:00,60.6,54.4,30.08,WNW,298,3.0,4.0,80,0.00,,,0.00,Wunderground v.1.15,2013-07-30 17:05:00,
2013-07-30 10:10:00,60.7,54.8,30.08,WNW,298,2.0,2.0,81,0.00,,,0.00,Wunderground v.1.15,2013-07-30 17:10:00,
2013-07-30 10:15:00,61.4,55.2,30.08,WNW,298,1.0,2.0,80,0.00,,,0.00,Wunderground v.1.15,2013-07-30 17:15:00,
2013-07-30 10:20:00,62.1,55.5,30.09,WNW,298,1.0,2.0,79,0.00,,,0.00,Wunderground v.1.15,2013-07-30 17:20:00,
2013-07-30 10:25:00,62.4,55.4,30.09,WNW,298,1.0,2.0,78,0.00,,,0.00,Wunderground v.1.15,2013-07-30 17:25:00,
2013-07-30 10:35:00,63.4,55.7,30.09,WNW,298,0.0,2.0,76,0.00,,,0.00,Wunderground v.1.15,2013-07-30 17:35:00,
2013-07-30 10:40:00,63.7,55.6,30.09,WNW,298,1.0,1.0,75,0.00,,,0.00,Wunderground v.1.15,2013-07-30 17:40:00,
2013-07-30 10:45:00,64.2,55.7,30.09,WNW,298,0.0,1.0,74,0.00,,,0.00,Wunderground v.1.15,2013-07-30 17:45:00,
2013-07-30 10:50:00,64.0,55.5,30.09,WNW,298,1.0,2.0,74,0.00,,,0.00,Wunderground v.1.15,2013-07-30 17:50:00,
2013-07-30 11:00:00,63.9,55.8,30.09,WNW,298,1.0,2.0,75,0.00,,,0.00,Wunderground v.1.15,2013-07-30 18:00:00,
2013-07-30 11:05:00,64.3,56.2,30.09,WNW,298,1.0,2.0,75,0.00,,,0.00,Wunderground v.1.15,2013-07-30 18:05:00,
2013-07-30 11:10:00,64.5,56.0,30.09,WNW,298,1.0,3.0,74,0.00,,,0.00,Wunderground v.1.15,2013-07-30 18:10:00,
2013-07-30 11:15:00,64.7,56.2,30.09,West,279,2.0,3.0,74,0.00,,,0.00,Wunderground v.1.15,2013-07-30 18:15:00,
2013-07-30 11:25:00,65.6,56.3,30.10,West,280,1.0,1.0,72,0.00,,,0.00,Wunderground v.1.15,2013-07-30 18:25:00,
2013-07-30 11:35:00,66.0,56.3,30.10,SW,217,1.0,1.0,71,0.00,,,0.00,Wunderground v.1.15,2013-07-30 18:35:00,
2013-07-30 11:40:00,66.1,56.4,30.10,SW,217,1.0,1.0,71,0.00,,,0.00,Wunderground v.1.15,2013-07-30 18:40:00,
2013-07-30 11:45:00,66.4,56.7,30.09,SW,217,0.0,1.0,71,0.00,,,0.00,Wunderground v.1.15,2013-07-30 18:45:00,
2013-07-30 11:55:00,67.1,57.0,30.09,North,349,2.0,3.0,70,0.00,,,0.00,Wunderground v.1.15,2013-07-30 18:55:00,
2013-07-30 12:00:00,66.9,56.8,30.09,NNW,336,2.0,2.0,70,0.00,,,0.00,Wunderground v.1.15,2013-07-30 19:00:00,
2013-07-30 12:05:00,66.7,56.6,30.09,East,98,2.0,2.0,70,0.00,,,0.00,Wunderground v.1.15,2013-07-30 19:05:00,
2013-07-30 12:10:00,67.3,56.8,30.09,SE,127,1.0,2.0,69,0.00,,,0.00,Wunderground v.1.15,2013-07-30 19:10:00,
2013-07-30 12:15:00,67.4,56.9,30.09,WNW,286,2.0,3.0,69,0.00,,,0.00,Wunderground v.1.15,2013-07-30 19:15:00,
2013-07-30 12:25:00,67.1,57.0,30.08,West,259,2.0,3.0,70,0.00,,,0.00,Wunderground v.1.15,2013-07-30 19:25:00,
2013-07-30 12:30:00,68.8,57.8,30.08,WSW,250,1.0,1.0,68,0.00,,,0.00,Wunderground v.1.15,2013-07-30 19:30:00,
2013-07-30 12:35:00,70.0,57.7,30.08,WNW,288,2.0,3.0,65,0.00,,,0.00,Wunderground v.1.15,2013-07-30 19:35:00,
2013-07-30 12:45:00,69.5,57.6,30.08,NNE,22,2.0,3.0,66,0.00,,,0.00,Wunderground v.1.15,2013-07-30 19:45:00,
2013-07-30 12:55:00,71.0,58.2,30.08,WNW,288,1.0,4.0,64,0.00,,,0.00,Wunderground v.1.15,2013-07-30 19:55:00,
2013-07-30 13:00:00,70.5,58.2,30.07,WNW,283,2.0,2.0,65,0.00,,,0.00,Wunderground v.1.15,2013-07-30 20:00:00,
2013-07-30 13:05:00,72.0,58.3,30.07,South,178,2.0,2.0,62,0.00,,,0.00,Wunderground v.1.15,2013-07-30 20:05:00,
2013-07-30 13:10:00,72.2,58.5,30.07,SSE,159,1.0,1.0,62,0.00,,,0.00,Wunderground v.1.15,2013-07-30 20:10:00,
2013-07-30 13:20:00,71.9,59.1,30.07,NE,45,3.0,3.0,64,0.00,,,0.00,Wunderground v.1.15,2013-07-30 20:20:00,
2013-07-30 13:25:00,71.8,59.0,30.07,WNW,283,3.0,3.0,64,0.00,,,0.00,Wunderground v.1.15,2013-07-30 20:25:00,
2013-07-30 13:30:00,72.8,59.0,30.06,NNW,340,2.0,2.0,62,0.00,,,0.00,Wunderground v.1.15,2013-07-30 20:30:00,
2013-07-30 13:40:00,73.4,59.1,30.07,NNE,31,2.0,2.0,61,0.00,,,0.00,Wunderground v.1.15,2013-07-30 20:40:00,
2013-07-30 13:45:00,73.4,58.7,30.07,NNE,27,2.0,2.0,60,0.00,,,0.00,Wunderground v.1.15,2013-07-30 20:45:00,
2013-07-30 13:50:00,73.7,59.4,30.06,NW,306,2.0,6.0,61,0.00,,,0.00,Wunderground v.1.15,2013-07-30 20:50:00,
2013-07-30 14:00:00,74.3,59.5,30.06,NE,40,2.0,3.0,60,0.00,,,0.00,Wunderground v.1.15,2013-07-30 21:00:00,
2013-07-30 14:05:00,74.4,59.1,30.06,SSW,202,2.0,3.0,59,0.00,,,0.00,Wunderground v.1.15,2013-07-30 21:05:00,
2013-07-30 14:10:00,75.9,60.1,30.06,WSW,237,2.0,3.0,58,0.00,,,0.00,Wunderground v.1.15,2013-07-30 21:10:00,
2013-07-30 14:15:00,75.5,60.2,30.05,WSW,243,3.0,3.0,59,0.00,,,0.00,Wunderground v.1.15,2013-07-30 21:15:00,
2013-07-30 14:25:00,76.4,60.5,30.05,WSW,253,2.0,4.0,58,0.00,,,0.00,Wunderground v.1.15,2013-07-30 21:25:00,
2013-07-30 14:30:00,76.6,60.2,30.05,South,180,3.0,3.0,57,0.00,,,0.00,Wunderground v.1.15,2013-07-30 21:30:00,
2013-07-30 14:35:00,77.1,60.2,30.05,SW,223,3.0,3.0,56,0.00,,,0.00,Wunderground v.1.15,2013-07-30 21:35:00,
2013-07-30 14:45:00,77.3,60.9,30.05,SE,140,3.0,7.0,57,0.00,,,0.00,Wunderground v.1.15,2013-07-30 21:45:00,
2013-07-30 14:50:00,76.3,60.4,30.05,SE,127,4.0,4.0,58,0.00,,,0.00,Wunderground v.1.15,2013-07-30 21:50:00,
2013-07-30 15:00:00,77.6,61.2,30.04,South,190,3.0,4.0,57,0.00,,,0.00,Wunderground v.1.15,2013-07-30 22:00:00,
2013-07-30 15:05:00,77.6,61.2,30.04,SSW,202,3.0,4.0,57,0.00,,,0.00,Wunderground v.1.15,2013-07-30 22:05:00,
2013-07-30 15:10:00,78.0,61.0,30.04,South,188,3.0,3.0,56,0.00,,,0.00,Wunderground v.1.15,2013-07-30 22:10:00,
2013-07-30 15:15:00,77.6,60.2,30.04,WNW,289,2.0,3.0,55,0.00,,,0.00,Wunderground v.1.15,2013-07-30 22:15:00,
2013-07-30 15:25:00,77.9,60.9,30.04,NNW,342,3.0,5.0,56,0.00,,,0.00,Wunderground v.1.15,2013-07-30 22:25:00,
2013-07-30 15:30:00,77.8,61.3,30.04,North,355,3.0,3.0,57,0.00,,,0.00,Wunderground v.1.15,2013-07-30 22:30:00,
2013-07-30 15:35:00,77.9,60.4,30.03,NNE,25,2.0,3.0,55,0.00,,,0.00,Wunderground v.1.15,2013-07-30 22:35:00,
2013-07-30 15:45:00,78.0,61.0,30.03,NNE,21,3.0,3.0,56,0.00,,,0.00,Wunderground v.1.15,2013-07-30 22:45:00,
2013-07-30 15:50:00,78.3,60.8,30.03,NE,53,2.0,2.0,55,0.00,,,0.00,Wunderground v.1.15,2013-07-30 22:50:00,
2013-07-30 15:55:00,78.7,60.7,30.03,WNW,297,3.0,9.0,54,0.00,,,0.00,Wunderground v.1.15,2013-07-30 22:55:00,
2013-07-30 16:00:00,78.8,60.2,30.03,WNW,296,4.0,5.0,53,0.00,,,0.00,Wunderground v.1.15,2013-07-30 23:00:00,
2013-07-30 16:10:00,78.3,60.3,30.02,North,360,3.0,3.0,54,0.00,,,0.00,Wunderground v.1.15,2013-07-30 23:10:00,
2013-07-30 16:15:00,78.3,59.8,30.02,East,94,3.0,3.0,53,0.00,,,0.00,Wunderground v.1.15,2013-07-30 23:15:00,
2013-07-30 16:25:00,78.7,60.7,30.02,NNW,341,3.0,3.0,54,0.00,,,0.00,Wunderground v.1.15,2013-07-30 23:25:00,
2013-07-30 16:30:00,79.1,61.0,30.02,NNW,342,3.0,3.0,54,0.00,,,0.00,Wunderground v.1.15,2013-07-30 23:30:00,
2013-07-30 16:35:00,79.1,60.5,30.02,NW,326,3.0,4.0,53,0.00,,,0.00,Wunderground v.1.15,2013-07-30 23:35:00,
2013-07-30 16:40:00,79.6,61.0,30.02,NW,323,3.0,3.0,53,0.00,,,0.00,Wunderground v.1.15,2013-07-30 23:40:00,
2013-07-30 16:50:00,79.1,60.5,30.01,North,5,3.0,3.0,53,0.00,,,0.00,Wunderground v.1.15,2013-07-30 23:50:00,
2013-07-30 16:55:00,79.1,60.5,30.01,NE,38,3.0,4.0,53,0.00,,,0.00,Wunderground v.1.15,2013-07-30 23:55:00,
2013-07-30 17:00:00,78.7,60.1,30.01,North,5,4.0,4.0,53,0.00,,,0.00,Wunderground v.1.15,2013-07-31 00:00:00,
2013-07-30 17:05:00,78.7,60.7,30.01,North,349,4.0,4.0,54,0.00,,,0.00,Wunderground v.1.15,2013-07-31 00:05:00,
2013-07-30 17:10:00,78.4,60.9,30.01,NE,51,4.0,4.0,55,0.00,,,0.00,Wunderground v.1.15,2013-07-31 00:10:00,
2013-07-30 17:20:00,78.7,60.7,30.01,NNE,17,3.0,3.0,54,0.00,,,0.00,Wunderground v.1.15,2013-07-31 00:20:00,
2013-07-30 17:25:00,79.2,60.1,30.00,NNW,337,2.0,3.0,52,0.00,,,0.00,Wunderground v.1.15,2013-07-31 00:25:00,
2013-07-30 17:35:00,78.6,60.0,30.01,NE,54,4.0,10.0,53,0.00,,,0.00,Wunderground v.1.15,2013-07-31 00:35:00,
2013-07-30 17:40:00,78.0,60.5,30.00,NNE,25,5.0,6.0,55,0.00,,,0.00,Wunderground v.1.15,2013-07-31 00:40:00,
2013-07-30 17:45:00,77.7,60.8,30.00,North,350,4.0,6.0,56,0.00,,,0.00,Wunderground v.1.15,2013-07-31 00:45:00,
2013-07-30 17:50:00,77.5,60.6,30.00,North,360,4.0,4.0,56,0.00,,,0.00,Wunderground v.1.15,2013-07-31 00:50:00,
2013-07-30 18:00:00,77.1,60.2,30.00,NNE,33,4.0,4.0,56,0.00,,,0.00,Wunderground v.1.15,2013-07-31 01:00:00,
2013-07-30 18:05:00,77.1,60.7,30.00,NW,319,3.0,4.0,57,0.00,,,0.00,Wunderground v.1.15,2013-07-31 01:05:00,
2013-07-30 18:10:00,77.0,60.6,30.00,North,355,3.0,3.0,57,0.00,,,0.00,Wunderground v.1.15,2013-07-31 01:10:00,
2013-07-30 18:20:00,76.5,61.1,30.00,North,355,3.0,3.0,59,0.00,,,0.00,Wunderground v.1.15,2013-07-31 01:20:00,
2013-07-30 18:25:00,76.5,61.6,30.00,NW,317,2.0,3.0,60,0.00,,,0.00,Wunderground v.1.15,2013-07-31 01:25:00,
2013-07-30 18:30:00,76.5,61.1,30.00,NNW,334,2.0,2.0,59,0.00,,,0.00,Wunderground v.1.15,2013-07-31 01:30:00,
2013-07-30 18:35:00,76.5,61.1,30.00,North,11,2.0,3.0,59,0.00,,,0.00,Wunderground v.1.15,2013-07-31 01:35:00,
2013-07-30 18:40:00,76.2,59.9,30.00,NE,43,2.0,5.0,57,0.00,,,0.00,Wunderground v.1.15,2013-07-31 01:40:00,
2013-07-30 18:45:00,76.0,60.2,30.00,NNE,18,3.0,5.0,58,0.00,,,0.00,Wunderground v.1.15,2013-07-31 01:45:00,
2013-07-30 18:55:00,76.0,60.2,30.00,West,274,1.0,2.0,58,0.00,,,0.00,Wunderground v.1.15,2013-07-31 01:55:00,
2013-07-30 19:00:00,75.9,60.1,30.00,West,277,1.0,2.0,58,0.00,,,0.00,Wunderground v.1.15,2013-07-31 02:00:00,
2013-07-30 19:05:00,75.7,59.9,30.00,NNW,327,1.0,2.0,58,0.00,,,0.00,Wunderground v.1.15,2013-07-31 02:05:00,
2013-07-30 19:10:00,75.1,58.8,30.00,NNE,13,2.0,2.0,57,0.00,,,0.00,Wunderground v.1.15,2013-07-31 02:10:00,
2013-07-30 19:20:00,74.2,57.5,30.00,NE,40,2.0,2.0,56,0.00,,,0.00,Wunderground v.1.15,2013-07-31 02:20:00,
2013-07-30 19:25:00,73.9,57.7,30.00,WNW,297,2.0,4.0,57,0.00,,,0.00,Wunderground v.1.15,2013-07-31 02:25:00,
2013-07-30 19:30:00,73.4,57.2,30.00,WNW,294,2.0,2.0,57,0.00,,,0.00,Wunderground v.1.15,2013-07-31 02:30:00,
2013-07-30 19:35:00,73.0,57.3,30.01,NW,312,2.0,4.0,58,0.00,,,0.00,Wunderground v.1.15,2013-07-31 02:35:00,
2013-07-30 19:45:00,72.3,57.6,30.01,NE,42,2.0,2.0,60,0.00,,,0.00,Wunderground v.1.15,2013-07-31 02:45:00,
2013-07-30 19:50:00,72.0,57.4,30.01,WNW,297,3.0,3.0,60,0.00,,,0.00,Wunderground v.1.15,2013-07-31 02:50:00,
2013-07-30 19:55:00,71.8,57.2,30.01,WNW,299,2.0,3.0,60,0.00,,,0.00,Wunderground v.1.15,2013-07-31 02:55:00,
2013-07-30 20:00:00,71.3,57.2,30.01,WNW,294,3.0,4.0,61,0.00,,,0.00,Wunderground v.1.15,2013-07-31 03:00:00,
2013-07-30 20:05:00,70.9,57.2,30.01,WNW,284,4.0,6.0,62,0.00,,,0.00,Wunderground v.1.15,2013-07-31 03:05:00,
2013-07-30 20:15:00,70.0,56.8,30.01,WNW,292,4.0,10.0,63,0.00,,,0.00,Wunderground v.1.15,2013-07-31 03:15:00,
2013-07-30 20:20:00,69.7,57.0,30.01,North,355,3.0,3.0,64,0.00,,,0.00,Wunderground v.1.15,2013-07-31 03:20:00,
2013-07-30 20:25:00,69.5,57.2,30.01,NW,309,2.0,4.0,65,0.00,,,0.00,Wunderground v.1.15,2013-07-31 03:25:00,
2013-07-30 20:30:00,69.3,57.0,30.01,WNW,286,2.0,2.0,65,0.00,,,0.00,Wunderground v.1.15,2013-07-31 03:30:00,
2013-07-30 20:35:00,69.1,57.3,30.01,NW,307,2.0,2.0,66,0.00,,,0.00,Wunderground v.1.15,2013-07-31 03:35:00,
2013-07-30 20:40:00,68.9,57.1,30.01,NW,318,2.0,2.0,66,0.00,,,0.00,Wunderground v.1.15,2013-07-31 03:40:00,
2013-07-30 20:50:00,68.4,57.0,30.01,WNW,298,3.0,4.0,67,0.00,,,0.00,Wunderground v.1.15,2013-07-31 03:50:00,
2013-07-30 20:55:00,68.1,57.1,30.01,NW,314,3.0,4.0,68,0.00,,,0.00,Wunderground v.1.15,2013-07-31 03:55:00,
2013-07-30 21:00:00,67.9,56.9,30.01,NW,313,3.0,4.0,68,0.00,,,0.00,Wunderground v.1.15,2013-07-31 04:00:00,
2013-07-30 21:05:00,67.7,56.8,30.01,WNW,300,3.0,4.0,68,0.00,,,0.00,Wunderground v.1.15,2013-07-31 04:05:00,
2013-07-30 21:10:00,67.5,57.0,30.01,NNW,327,3.0,3.0,69,0.00,,,0.00,Wunderground v.1.15,2013-07-31 04:10:00,
2013-07-30 21:15:00,67.3,56.8,30.01,NW,321,4.0,4.0,69,0.00,,,0.00,Wunderground v.1.15,2013-07-31 04:15:00,
2013-07-30 21:20:00,67.0,56.5,30.02,WNW,292,4.0,4.0,69,0.00,,,0.00,Wunderground v.1.15,2013-07-31 04:20:00,
2013-07-30 21:25:00,66.8,56.7,30.02,WNW,302,3.0,5.0,70,0.00,,,0.00,Wunderground v.1.15,2013-07-31 04:25:00,
2013-07-30 21:30:00,66.6,56.5,30.02,WNW,296,4.0,4.0,70,0.00,,,0.00,Wunderground v.1.15,2013-07-31 04:30:00,
2013-07-30 21:35:00,66.4,56.7,30.03,NW,317,4.0,4.0,71,0.00,,,0.00,Wunderground v.1.15,2013-07-31 04:35:00,
2013-07-30 21:40:00,66.2,56.5,30.03,NW,307,4.0,4.0,71,0.00,,,0.00,Wunderground v.1.15,2013-07-31 04:40:00,
2013-07-30 21:45:00,66.0,56.3,30.03,NW,325,3.0,4.0,71,0.00,,,0.00,Wunderground v.1.15,2013-07-31 04:45:00,
2013-07-30 21:50:00,65.9,56.6,30.03,NW,325,2.0,2.0,72,0.00,,,0.00,Wunderground v.1.15,2013-07-31 04:50:00,
2013-07-30 22:00:00,65.5,56.6,30.03,NNW,346,3.0,5.0,73,0.00,,,0.00,Wunderground v.1.15,2013-07-31 05:00:00,
2013-07-30 22:10:00,65.1,56.6,30.03,NW,306,4.0,4.0,74,0.00,,,0.00,Wunderground v.1.15,2013-07-31 05:10:00,
2013-07-30 22:15:00,64.9,56.4,30.03,NW,309,3.0,4.0,74,0.00,,,0.00,Wunderground v.1.15,2013-07-31 05:15:00,
2013-07-30 22:20:00,64.7,56.6,30.03,NW,316,4.0,4.0,75,0.00,,,0.00,Wunderground v.1.15,2013-07-31 05:20:00,
2013-07-30 22:25:00,64.5,56.4,30.03,NW,314,4.0,4.0,75,0.00,,,0.00,Wunderground v.1.15,2013-07-31 05:25:00,
2013-07-30 22:30:00,64.3,56.2,30.04,WNW,288,3.0,9.0,75,0.00,,,0.00,Wunderground v.1.15,2013-07-31 05:30:00,
2013-07-30 22:35:00,64.1,56.4,30.04,NNW,329,3.0,9.0,76,0.00,,,0.00,Wunderground v.1.15,2013-07-31 05:35:00,
2013-07-30 22:40:00,63.9,56.2,30.03,NW,324,3.0,3.0,76,0.00,,,0.00,Wunderground v.1.15,2013-07-31 05:40:00,
2013-07-30 22:50:00,63.5,56.2,30.04,NW,309,4.0,4.0,77,0.00,,,0.00,Wunderground v.1.15,2013-07-31 05:50:00,
2013-07-30 22:55:00,63.3,56.0,30.04,NNW,345,4.0,5.0,77,0.00,,,0.00,Wunderground v.1.15,2013-07-31 05:55:00,
2013-07-30 23:00:00,63.0,55.7,30.04,WNW,290,4.0,4.0,77,0.00,,,0.00,Wunderground v.1.15,2013-07-31 06:00:00,
2013-07-30 23:05:00,62.8,55.8,30.04,NW,306,4.0,5.0,78,0.00,,,0.00,Wunderground v.1.15,2013-07-31 06:05:00,
2013-07-30 23:10:00,62.6,55.6,30.04,NW,309,4.0,4.0,78,0.00,,,0.00,Wunderground v.1.15,2013-07-31 06:10:00,
2013-07-30 23:20:00,62.3,55.7,30.04,NW,323,5.0,5.0,79,0.00,,,0.00,Wunderground v.1.15,2013-07-31 06:20:00,
2013-07-30 23:25:00,62.2,55.6,30.05,NNW,338,3.0,5.0,79,0.00,,,0.00,Wunderground v.1.15,2013-07-31 06:25:00,
2013-07-30 23:30:00,62.0,55.4,30.05,NW,324,2.0,2.0,79,0.00,,,0.00,Wunderground v.1.15,2013-07-31 06:30:00,
2013-07-30 23:35:00,61.9,55.3,30.05,NNW,327,2.0,2.0,79,0.00,,,0.00,Wunderground v.1.15,2013-07-31 06:35:00,
2013-07-30 23:40:00,61.8,55.6,30.05,NW,309,1.0,5.0,80,0.00,,,0.00,Wunderground v.1.15,2013-07-31 06:40:00,
2013-07-30 23:50:00,61.5,55.3,30.05,NW,304,3.0,7.0,80,0.00,,,0.00,Wunderground v.1.15,2013-07-31 06:50:00,
2013-07-30 23:55:00,61.3,55.4,30.05,NW,325,4.0,7.0,81,0.00,,,0.00,Wunderground v.1.15,2013-07-31 06:55:00,